Orbital Elements
Epoch 2007 Aug. 8.0 TT = JDT 2454320.5
T 2007 Aug. 22.99054 TT MPC
q 4.3518632 (2000.0) P Q
n 0.06667790 Peri. 175.04781 +0.99833137 +0.05760729
a 6.0230266 Node 181.66539 -0.05656213 +0.96166539
e 0.2774624 Incl. 7.87760 -0.01162719 +0.26810647
P 14.8
From 215 observations 2007 Sept. 4-2009 Feb. 16, mean residual 0".6.
|